Flag for U.S.A. Weather past 2 weeks in Mountain View, California, U.S.A.

Now
73 °F

Sunny.


Feels Like: 77 °F
Forecast: 55 / 73 °F
Wind: 10 mph from North

Location: Moffett Field

Current Time: Oct 23, 2014 at 3:24:19 PM

Latest Report: Oct 23, 2014 at 2:56 PM


Visibility: 10 mi

Pressure: 30.02 "Hg

Humidity: 44%

Dew point: 50 °F

Location of Mountain ViewLocation

Historic Weather in Mountain View — Graph

°F

Mountain View temperature yesterday

Maximum temperature yesterday: 73 °F (at 2:56 PM)
Minimum temperature yesterday: 52 °F (at 6:56 AM)
Average temperature yesterday: 62 °F

Past Weeks' High & Low Weather Summary

 TemperatureHumidityPressure
High89 °F (Oct 12, 3:56 PM)100% (Oct 9, 1:56 AM)30.13 "Hg (Oct 9, 1:56 AM)
Low52 °F (Oct 22, 6:56 AM)11% (Oct 12, 4:56 PM)29.83 "Hg (Oct 14, 6:03 PM)
Average65 °F70%29.98 "Hg
* Reported Oct 8 1:56 PM — Oct 23 1:56 PM, Mountain View, Weather by CustomWeather, © 2014

Note: Actual official high and low records may vary slightly from our data, if they occured in-between our weather recording intervals... More about our weather records

Advertising

Mountain View weather history for previous 24 hours

 ConditionsComfort  
Time TempWeatherWind HumidityBarometerVisibility
1:56 PM
Oct 23
74 °FSunny.8 mph45%30.04 "Hg10 mi
12:56 PM74 °FSunny.9 mph46%30.06 "Hg10 mi
11:56 AM72 °FSunny.5 mph52%30.08 "Hg10 mi
10:56 AM69 °FSunny.No wind63%30.09 "Hg10 mi
9:56 AM66 °FSunny.No wind78%30.10 "Hg10 mi
8:56 AM64 °FSunny.No wind78%30.09 "Hg10 mi
7:56 AM62 °FPassing clouds.No wind80%30.07 "Hg10 mi
6:56 AM60 °FOvercast.No wind83%30.06 "Hg10 mi
5:56 AM59 °FPassing clouds.No wind87%30.05 "Hg10 mi
4:56 AM58 °FPassing clouds.No wind90%30.05 "Hg10 mi
3:56 AM58 °FClear.No wind90%30.04 "Hg10 mi
2:56 AM59 °FClear.No wind84%30.05 "Hg10 mi
1:56 AM59 °FClear.3 mph87%30.05 "Hg10 mi
12:56 AM61 °FClear.No wind83%30.05 "Hg10 mi
11:56 PM
Oct 22
63 °FClear.No wind81%30.06 "Hg10 mi
10:56 PM63 °FClear.No wind81%30.06 "Hg10 mi
9:56 PM64 °FClear.3 mph87%30.06 "Hg10 mi
8:56 PM64 °FClear.9 mph84%30.06 "Hg10 mi
7:56 PM65 °FClear.9 mph85%30.05 "Hg10 mi
6:56 PM66 °FSunny.7 mph75%30.04 "Hg10 mi
5:56 PM68 °FSunny.9 mph63%30.03 "Hg10 mi
4:56 PM73 °FSunny.7 mph46%30.02 "Hg10 mi
3:56 PM73 °FSunny.10 mph41%30.03 "Hg10 mi
Weather by CustomWeather, © 2014

See weather overviewHow to use our weather pages